| time (UTC) | temp F | wind direction | speed MPH | gust MPH | rain 1hr in | rain 24hr in | rain mn in | humidity % | barometer mb |
| 20260903151517 | 56 | 270 | 1.0 | 5.0 | 0.00 | 0.00 | 0.00 | 79 | 1007.7 |
| 20260903150517 | 56 | 0.0 | 5.0 | 0.00 | 0.00 | 0.00 | 79 | 1007.7 | |
| 20260903145518 | 56 | 0.0 | 5.0 | 0.00 | 0.00 | 0.00 | 79 | 1008.0 | |
| 20260903144518 | 56 | 0.0 | 8.0 | 0.00 | 0.00 | 0.00 | 79 | 1008.4 | |
| 20260903143517 | 56 | 0.0 | 3.0 | 0.00 | 0.00 | 0.00 | 79 | 1008.5 | |
| 20260903142558 | 56 | 0.0 | 2.0 | 0.00 | 0.00 | 0.00 | 80 | 1008.8 | |
| 20260903141518 | 56 | 0.0 | 1.0 | 0.00 | 0.00 | 0.00 | 82 | 1009.0 | |
| 20260903140538 | 56 | 0.0 | 3.0 | 0.00 | 0.00 | 0.00 | 82 | 1009.1 | |
| 20260903135537 | 57 | 248 | 1.0 | 9.0 | 0.00 | 0.00 | 0.00 | 81 | 1009.4 |
| 20260903134518 | 57 | 248 | 1.0 | 5.0 | 0.00 | 0.00 | 0.00 | 80 | 1009.5 |
| 20260903133538 | 59 | 225 | 4.0 | 13.0 | 0.00 | 0.00 | 0.00 | 76 | 1009.8 |
| 20260903132518 | 59 | 225 | 1.0 | 7.0 | 0.00 | 0.00 | 0.00 | 75 | 1009.9 |
| 20260903131517 | 59 | 248 | 1.0 | 4.0 | 0.00 | 0.00 | 0.00 | 75 | 1009.6 |
| 20260903130518 | 59 | 270 | 1.0 | 6.0 | 0.00 | 0.00 | 0.00 | 75 | 1009.8 |
| 20260903125517 | 59 | 270 | 2.0 | 8.0 | 0.00 | 0.00 | 0.00 | 74 | 1010.1 |
| 20260903124517 | 59 | 248 | 1.0 | 7.0 | 0.00 | 0.00 | 0.00 | 74 | 1010.1 |
| 20260903123538 | 59 | 0.0 | 4.0 | 0.00 | 0.00 | 0.00 | 74 | 1010.1 | |
| 20260903122517 | 59 | 0.0 | 2.0 | 0.00 | 0.00 | 0.00 | 74 | 1010.1 | |
| 20260903121518 | 59 | 270 | 1.0 | 10.0 | 0.00 | 0.00 | 0.00 | 74 | 1010.2 |
| 20260903120517 | 59 | 293 | 1.0 | 8.0 | 0.00 | 0.01 | 0.00 | 74 | 1010.3 |
| 20260903115518 | 58 | 0.0 | 4.0 | 0.00 | 0.02 | 0.00 | 75 | 1010.4 | |
| 20260903114517 | 58 | 0.0 | 0.0 | 0.00 | 0.03 | 0.00 | 75 | 1010.4 | |
| 20260903113517 | 59 | 0.0 | 1.0 | 0.00 | 0.03 | 0.00 | 74 | 1010.6 | |
| 20260903112517 | 60 | 0.0 | 1.0 | 0.00 | 0.03 | 0.00 | 72 | 1010.5 | |
| 20260903111517 | 61 | 0.0 | 2.0 | 0.00 | 0.03 | 0.00 | 71 | 1010.6 | |
| 20260903110517 | 61 | 248 | 1.0 | 8.0 | 0.00 | 0.03 | 0.00 | 70 | 1010.6 |
| 20260903105517 | 61 | 0.0 | 4.0 | 0.00 | 0.03 | 0.00 | 70 | 1010.7 | |
| 20260903104517 | 61 | 248 | 1.0 | 9.0 | 0.00 | 0.03 | 0.00 | 69 | 1010.7 |
| 20260903103538 | 62 | 0.0 | 1.0 | 0.00 | 0.03 | 0.00 | 69 | 1010.6 | |
| 20260903102517 | 62 | 0.0 | 2.0 | 0.00 | 0.03 | 0.00 | 68 | 1010.5 | |
| 20260903101517 | 62 | 0.0 | 8.0 | 0.00 | 0.03 | 0.00 | 69 | 1010.5 | |
| 20260903100537 | 62 | 0.0 | 6.0 | 0.00 | 0.03 | 0.00 | 70 | 1010.4 | |
| 20260903095537 | 62 | 0.0 | 2.0 | 0.00 | 0.03 | 0.00 | 72 | 1010.4 | |
| 20260903094517 | 62 | 0.0 | 1.0 | 0.00 | 0.03 | 0.00 | 73 | 1010.4 | |
| 20260903093517 | 63 | 0.0 | 0.0 | 0.00 | 0.03 | 0.00 | 71 | 1010.2 | |
| 20260903092519 | 65 | 0.0 | 1.0 | 0.00 | 0.03 | 0.00 | 69 | 1010.2 | |
| 20260903091520 | 66 | 0.0 | 1.0 | 0.00 | 0.03 | 0.00 | 66 | 1010.3 | |
| 20260903090539 | 67 | 0.0 | 1.0 | 0.00 | 0.03 | 0.00 | 66 | 1010.4 | |
| 20260903085519 | 66 | 0.0 | 7.0 | 0.00 | 0.03 | 0.00 | 67 | 1010.4 | |
| 20260903084520 | 65 | 0.0 | 1.0 | 0.00 | 0.03 | 0.00 | 66 | 1010.5 | |
| 20260903083539 | 67 | 0.0 | 1.0 | 0.00 | 0.03 | 0.00 | 63 | 1010.6 | |
| 20260903082519 | 68 | 0.0 | 3.0 | 0.00 | 0.03 | 0.00 | 63 | 1010.7 | |
| 20260903081539 | 67 | 248 | 1.0 | 6.0 | 0.00 | 0.03 | 0.00 | 63 | 1010.9 |
| 20260903080559 | 67 | 0.0 | 5.0 | 0.00 | 0.03 | 0.00 | 62 | 1011.0 | |
| 20260903075559 | 69 | 0.0 | 2.0 | 0.00 | 0.03 | 0.00 | 63 | 1011.1 | |
| 20260903074519 | 68 | 0.0 | 2.0 | 0.00 | 0.03 | 0.00 | 63 | 1011.1 | |
| 20260903073519 | 68 | 0.0 | 3.0 | 0.00 | 0.03 | 0.00 | 63 | 1011.3 | |
| 20260903072519 | 67 | 203 | 1.0 | 9.0 | 0.00 | 0.03 | 0.00 | 64 | 1011.4 |
| 20260903071518 | 67 | 270 | 1.0 | 4.0 | 0.00 | 0.03 | 0.00 | 65 | 1011.7 |
| 20260903070519 | 67 | 0.0 | 4.0 | 0.00 | 0.03 | 0.00 | 64 | 1011.8 | |
| 20260903065519 | 67 | 270 | 1.0 | 8.0 | 0.00 | 0.03 | 0.00 | 64 | 1012.0 |
| 20260903064539 | 67 | 0.0 | 5.0 | 0.00 | 0.03 | 0.00 | 66 | 1012.1 | |
| 20260903063519 | 66 | 248 | 1.0 | 5.0 | 0.00 | 0.04 | 0.00 | 68 | 1012.1 |
| 20260903062559 | 67 | 0.0 | 5.0 | 0.00 | 0.04 | 0.00 | 65 | 1012.2 | |
| 20260903061519 | 66 | 270 | 1.0 | 8.0 | 0.00 | 0.04 | 0.00 | 65 | 1012.2 |
| 20260903060519 | 66 | 0.0 | 5.0 | 0.00 | 0.04 | 0.00 | 66 | 1012.4 | |
| 20260903055559 | 67 | 248 | 1.0 | 8.0 | 0.00 | 0.04 | 0.00 | 64 | 1012.6 |
| 20260903054518 | 67 | 270 | 1.0 | 7.0 | 0.00 | 0.04 | 0.00 | 64 | 1012.8 |
| 20260903053519 | 66 | 270 | 1.0 | 6.0 | 0.00 | 0.04 | 0.00 | 66 | 1012.8 |
| 20260903052518 | 65 | 270 | 2.0 | 12.0 | 0.00 | 0.04 | 0.00 | 66 | 1013.1 |
| 20260903051539 | 64 | 270 | 2.0 | 12.0 | 0.00 | 0.04 | 0.00 | 69 | 1013.4 |
| 20260903050519 | 65 | 225 | 1.0 | 10.0 | 0.00 | 0.04 | 0.00 | 68 | 1013.8 |
| 20260903045519 | 64 | 225 | 1.0 | 5.0 | 0.00 | 0.04 | 0.00 | 70 | 1014.0 |
| 20260903044539 | 64 | 0.0 | 3.0 | 0.00 | 0.04 | 0.00 | 70 | 1014.1 | |
| 20260903043518 | 64 | 248 | 2.0 | 11.0 | 0.00 | 0.04 | 0.00 | 71 | 1014.2 |
| 20260903042538 | 64 | 270 | 1.0 | 8.0 | 0.00 | 0.04 | 0.00 | 69 | 1014.5 |
| 20260903041518 | 65 | 0.0 | 3.0 | 0.00 | 0.04 | 0.00 | 69 | 1014.7 | |
| 20260903040519 | 64 | 270 | 1.0 | 7.0 | 0.00 | 0.04 | 0.00 | 69 | 1014.8 |
| 20260903035518 | 64 | 225 | 1.0 | 4.0 | 0.00 | 0.04 | 0.00 | 68 | 1015.3 |
| 20260903034518 | 65 | 248 | 1.0 | 7.0 | 0.00 | 0.04 | 0.00 | 70 | 1015.5 |
| 20260903033519 | 64 | 248 | 1.0 | 8.0 | 0.00 | 0.04 | 0.00 | 73 | 1015.8 |
| 20260903032518 | 64 | 0.0 | 5.0 | 0.00 | 0.04 | 0.00 | 73 | 1016.0 | |
| 20260903031518 | 63 | 0.0 | 2.0 | 0.00 | 0.04 | 0.00 | 75 | 1016.2 | |
| 20260903030518 | 62 | 248 | 1.0 | 5.0 | 0.00 | 0.05 | 0.00 | 73 | 1016.4 |
| 20260903025518 | 62 | 0.0 | 5.0 | 0.00 | 0.06 | 0.00 | 74 | 1016.5 | |
| 20260903024518 | 62 | 248 | 1.0 | 6.0 | 0.00 | 0.06 | 0.00 | 74 | 1016.5 |
| 20260903023518 | 61 | 0.0 | 2.0 | 0.00 | 0.07 | 0.00 | 76 | 1016.8 | |
| 20260903022518 | 61 | 0.0 | 5.0 | 0.00 | 0.07 | 0.00 | 77 | 1016.9 | |
| 20260903021538 | 60 | 0.0 | 3.0 | 0.00 | 0.07 | 0.00 | 80 | 1017.1 | |
| 20260903020518 | 59 | 0.0 | 2.0 | 0.00 | 0.07 | 0.00 | 80 | 1017.3 | |
| 20260903015518 | 59 | 0.0 | 2.0 | 0.00 | 0.07 | 0.00 | 81 | 1017.5 | |
| 20260903014558 | 58 | 0.0 | 7.0 | 0.00 | 0.07 | 0.00 | 82 | 1017.7 | |
| 20260903013538 | 57 | 0.0 | 2.0 | 0.00 | 0.07 | 0.00 | 83 | 1018.0 | |
| 20260903012538 | 57 | 0.0 | 2.0 | 0.00 | 0.07 | 0.00 | 84 | 1018.0 | |
| 20260903011518 | 57 | 0.0 | 2.0 | 0.00 | 0.07 | 0.00 | 85 | 1018.3 | |
| 20260903010518 | 56 | 0.0 | 2.0 | 0.00 | 0.07 | 0.00 | 86 | 1018.3 | |
| 20260903005518 | 55 | 0.0 | 1.0 | 0.00 | 0.07 | 0.00 | 87 | 1018.3 | |
| 20260903004518 | 55 | 0.0 | 2.0 | 0.00 | 0.07 | 0.00 | 89 | 1018.5 | |
| 20260903003518 | 55 | 0.0 | 0.0 | 0.00 | 0.07 | 0.00 | 90 | 1018.6 | |
| 20260903002518 | 54 | 0.0 | 0.0 | 0.00 | 0.07 | 0.00 | 90 | 1018.7 | |
| 20260903001518 | 54 | 0.0 | 0.0 | 0.00 | 0.07 | 0.00 | 91 | 1018.7 | |
| 20260903000518 | 53 | 0.0 | 0.0 | 0.00 | 0.07 | 0.00 | 91 | 1018.5 | |
| 20260902235518 | 52 | 0.0 | 0.0 | 0.00 | 0.07 | 0.00 | 92 | 1018.9 | |
| 20260902234518 | 52 | 0.0 | 0.0 | 0.00 | 0.07 | 0.00 | 91 | 1018.8 | |
| 20260902233538 | 52 | 0.0 | 0.0 | 0.00 | 0.07 | 0.00 | 92 | 1018.8 | |
| 20260902232518 | 52 | 0.0 | 0.0 | 0.00 | 0.07 | 0.00 | 92 | 1018.8 | |
| 20260902231518 | 52 | 0.0 | 0.0 | 0.00 | 0.07 | 0.00 | 92 | 1018.8 | |
| 20260902230518 | 51 | 0.0 | 0.0 | 0.00 | 0.07 | 0.00 | 92 | 1018.9 | |
| 20260902225518 | 51 | 0.0 | 0.0 | 0.00 | 0.07 | 0.00 | 92 | 1019.0 | |
| 20260902224518 | 51 | 0.0 | 0.0 | 0.00 | 0.07 | 0.00 | 92 | 1019.0 | |
| 20260902223518 | 51 | 0.0 | 0.0 | 0.00 | 0.07 | 0.00 | 92 | 1019.1 | |
| 20260902222518 | 51 | 0.0 | 0.0 | 0.00 | 0.07 | 0.00 | 92 | 1019.1 | |
| 20260902221518 | 51 | 0.0 | 0.0 | 0.00 | 0.07 | 0.00 | 92 | 1019.2 | |
| 20260902220518 | 51 | 0.0 | 0.0 | 0.00 | 0.07 | 0.00 | 92 | 1019.1 | |
| 20260902215518 | 51 | 0.0 | 0.0 | 0.00 | 0.07 | 0.00 | 92 | 1019.0 | |
| 20260902214537 | 51 | 0.0 | 0.0 | 0.00 | 0.07 | 0.00 | 92 | 1019.1 | |
| 20260902213517 | 52 | 0.0 | 0.0 | 0.00 | 0.07 | 0.00 | 92 | 1019.2 | |
| 20260902212517 | 52 | 0.0 | 0.0 | 0.00 | 0.07 | 0.00 | 92 | 1019.2 | |
| 20260902211517 | 51 | 0.0 | 0.0 | 0.00 | 0.07 | 0.00 | 92 | 1019.1 | |
| 20260902210518 | 52 | 0.0 | 0.0 | 0.00 | 0.07 | 0.00 | 92 | 1019.1 | |
| 20260902205517 | 51 | 0.0 | 0.0 | 0.00 | 0.07 | 0.00 | 92 | 1019.1 | |
| 20260902204517 | 51 | 0.0 | 0.0 | 0.00 | 0.07 | 0.00 | 92 | 1019.3 | |
| 20260902203558 | 51 | 0.0 | 0.0 | 0.00 | 0.07 | 0.00 | 92 | 1019.2 | |
| 20260902202518 | 51 | 0.0 | 0.0 | 0.00 | 0.07 | 0.00 | 92 | 1019.3 | |
| 20260902201517 | 51 | 0.0 | 0.0 | 0.00 | 0.07 | 0.00 | 92 | 1019.4 | |
| 20260902200539 | 51 | 0.0 | 0.0 | 0.00 | 0.07 | 0.00 | 92 | 1019.3 | |
| 20260902195517 | 52 | 0.0 | 0.0 | 0.00 | 0.07 | 0.00 | 91 | 1019.3 | |
| 20260902194517 | 52 | 0.0 | 0.0 | 0.00 | 0.07 | 0.00 | 92 | 1019.3 | |
| 20260902193518 | 52 | 0.0 | 0.0 | 0.00 | 0.07 | 0.00 | 92 | 1019.5 | |
| 20260902192517 | 51 | 0.0 | 0.0 | 0.00 | 0.07 | 0.00 | 92 | 1019.5 | |
| 20260902191537 | 51 | 0.0 | 0.0 | 0.00 | 0.07 | 0.00 | 92 | 1019.6 | |
| 20260902190517 | 51 | 0.0 | 0.0 | 0.00 | 0.07 | 0.00 | 91 | 1019.6 | |
| 20260902185517 | 51 | 0.0 | 0.0 | 0.00 | 0.07 | 0.00 | 92 | 1019.9 | |
| 20260902184537 | 52 | 0.0 | 0.0 | 0.00 | 0.07 | 0.00 | 92 | 1020.0 | |
| 20260902183557 | 51 | 0.0 | 0.0 | 0.00 | 0.07 | 0.00 | 91 | 1020.1 | |
| 20260902182517 | 51 | 0.0 | 0.0 | 0.00 | 0.07 | 0.00 | 91 | 1020.2 | |
| 20260902181517 | 52 | 0.0 | 0.0 | 0.00 | 0.07 | 0.00 | 91 | 1020.2 | |
| 20260902180517 | 52 | 0.0 | 0.0 | 0.00 | 0.07 | 0.00 | 92 | 1020.3 | |
| 20260902175517 | 52 | 0.0 | 0.0 | 0.00 | 0.07 | 0.00 | 92 | 1020.3 | |
| 20260902174518 | 52 | 0.0 | 0.0 | 0.00 | 0.07 | 0.00 | 92 | 1020.4 | |
| 20260902173537 | 51 | 0.0 | 0.0 | 0.00 | 0.07 | 0.00 | 92 | 1020.5 | |
| 20260902172519 | 51 | 0.0 | 0.0 | 0.00 | 0.07 | 0.00 | 92 | 1020.5 | |
| 20260902171519 | 51 | 0.0 | 0.0 | 0.00 | 0.07 | 0.00 | 91 | 1020.7 | |
| 20260902170540 | 52 | 0.0 | 0.0 | 0.00 | 0.07 | 0.00 | 91 | 1020.8 | |
| 20260902165519 | 52 | 0.0 | 0.0 | 0.00 | 0.07 | 0.00 | 91 | 1020.7 | |
| 20260902164519 | 52 | 0.0 | 0.0 | 0.00 | 0.07 | 0.00 | 91 | 1020.7 | |
| 20260902163520 | 52 | 0.0 | 0.0 | 0.00 | 0.07 | 0.00 | 91 | 1020.6 | |
| 20260902162519 | 52 | 0.0 | 0.0 | 0.00 | 0.07 | 0.00 | 91 | 1020.7 | |
| 20260902161519 | 52 | 0.0 | 0.0 | 0.00 | 0.07 | 0.00 | 91 | 1020.8 | |
| 20260902160519 | 53 | 0.0 | 0.0 | 0.00 | 0.07 | 0.00 | 91 | 1020.8 | |
| 20260902155557 | 53 | 0.0 | 0.0 | 0.00 | 0.07 | 0.07 | 91 | 1020.9 | |
| 20260902154518 | 53 | 0.0 | 0.0 | 0.00 | 0.07 | 0.07 | 91 | 1021.0 | |
| 20260902153537 | 53 | 0.0 | 0.0 | 0.00 | 0.07 | 0.07 | 91 | 1021.1 | |
| 20260902152517 | 53 | 0.0 | 0.0 | 0.00 | 0.07 | 0.07 | 91 | 1021.1 |